METEOSAT 2 AKM (MAGE 1), 20837

Orbit data source: Space-Track

METEOSAT 2 AKM (MAGE 1), 20837 is space debris in GEO originally from a launch on Fri, 19 Jun 1981 UTC launched from the French Guiana (FRGUI). Debris objects in space refer to the collection of defunct objects orbiting the Earth. Examples of debris include non-operational satellites, rocket bodies, and fragments generated from explosions, collisions, or faulty payload assembly.

Not visible in the next 10 days
Identifier
20837, 1981-057F
Orbit
GEO
Country
Flag of ESAESA
Related business
Manufacturer
SEP
Mission
Spacecraft
Bus & Motor
MAGE, Unknown motor
Mass
359 kg wet, 70 kg dry
Launch date (UTC)
1981-06-19 (44 years ago)
Launch vehicle
Unknown
Launch site
French Guiana (FRGUI)
Object type
Payload
Rocket body
Debris
Shape & HBR
Cyl + Cone, 0.6 m
Radar Cross Section
0.910 m², Large (>1 m²)

Expand to show TLE details & history
Last TLE update: 1 day ago

TLE from 1 day ago
0 METEOSAT 2 AKM (MAGE 1)
1 20837U 81057F   25260.73344720 -.00000027  00000-0  00000-0 0  9996
2 20837   8.2014 300.6270 0076485 204.4492 199.0499  0.99360640116691
Epoch: 2025-09-17T17:36Z
TLE epoch observation values (Epoch: 2025-09-17T17:36:09.838Z)
Latitude
5.60359°
Longitude
82.62508°
Altitude
36,351.316 km
Speed
3.043 km/s
True Right ascension
22h 54m 17s
True Declination
5° 35' 53"
Sunlit
Object was in daylight at epoch
Visualization orbit readout
Latitude
Unknown
Longitude
Unknown
Altitude
Unknown
Speed
Unknown
Apparent Right ascension
Unknown
Apparent Declination
Unknown
Sunlit
N/A
Visualization observer readout
Local Sidereal Time
12:51:04
Azimuth
Unknown
Elevation
Unknown
Doppler factor
Unknown
Orbital elements
Apogee altitude
36,369.478 km
Perigee altitude
35,720.531 km
Semi-major axis
42,423.142 km
Eccentricity
0.00765
Inclination
8.2014°
RAAN
300.627°
Arg. of periapsis
204.4492°
True anomaly
198.7664°
Mean anomaly
199.0499°
Eccentric anomaly
198.90789°
Mean motion
0.24839 °/min
Orbital period
1,449.32 mins
BSTAR
0
Loading maneuver chart data...
Computing Atmospheric mass density...
Loading historical data...
Loading historical data...
Loading historical data...
Loading historical data...
Loading historical data...
Loading historical data...
Loading historical data...

Documentation

Showing up to 5 results
|